STARLINK-2005 (47600 NORAD) Tracking and Keplerian Element Data
This shows tracking and keplerian element data for the satellite.
Feedback or suggestion? Click here.
Element | Value |
Catalog | 47600 |
Name | STARLINK-2005 |
Epoch Orbit | 407 |
Epoch Day | 57.16667824 |
Epoch Year | 2021 |
RAAN | 16.3791 |
Inclination | 53.0535 |
Eccentricity | 0.0001086 |
Argument of Perigee | 70.7447 |
Mean Anonmoly | 283.0781 |
Mean Motion | 15.62725858 |
Decay Rate | -0.0006871 |
L1 | 1 47600U 21009BE 21057.16667824 -.00068710 00000-0 -75174-3 0 9995 |
L2 | 2 47600 53.0535 16.3791 0001086 70.7447 283.0781 15.62725858 4070 |
Live tracking and technical data element details for STARLINK-2005 (NORAD 47600). STARLINK-2005 can be tracked NOW for your location showing map with azimuth and elevation plus other details from your city location.
Track the satellite on the map from your city or location and see movement details for azimuth, elevation, latitude, longitude, range, height, and movement on the map or in text.
IsCatalogInMostPopularTable: catalog: 47600, numindb: 1
Update: records affected: 1
GetName: 47600 STARLINK-2005
Hit Count: updated at: Fri, 26 Feb 2021 09:03:04 GMT